Location: Home
(42.5358°N, 72.7383°W)
Time: 03:32:39
(UTC-04:00)

Vanguard 1 - Pass Details

Date: 29 May 2022
Orbit: 649 x 3832 km, 34.2° (Epoch: 24 June)

Event Time Altitude Azimuth Distance (km) Brightness Sun altitude
Rises 04:08:32 0° 265° (W) 5,875 13.6 -11.0°
Reaches altitude 10° 04:11:48 10° 263° (W) 5,208 13.3 -10.6°
Maximum altitude 04:28:38 66° 186° (S) 3,706 12.8 -8.2°
Drops below altitude 10° 04:51:53 10° 111° (ESE) 6,859 14.8 -4.8°
Sets 04:56:59 0° 109° (ESE) 7,736 15.2 -4.0°
